Powrót do katalogu

METEOR 2-20 DEB

AktywnyPO
NORAD 59998·DEBRIS·🇷🇺 Russia

Wystrzelony Sep 28, 1990 z Plesetsk Cosmodrome

Loading…

Następne Przeloty (najbliższe 24 godziny)

TLE

ŚwieżeSource: Space-Track

Epoka: Sep 14, 2026, 01:15 UTC

1 59998U 90086H   26257.05272812  .00000734  00000-0  58418-3 0  9995
2 59998  82.5311 122.8742 0017072 119.4133 240.8737 13.89842920129815

Śledź METEOR 2-20 DEB w czasie rzeczywistym z AllMySat

Download on the App Store